Location: Potomac
(46.8816°N, 113.5795°W)
Time: 07:17:32
(UTC+00:00)

Envisat - Visible Passes

Search period start: 30 September 2023 00:00
Search period end: 10 October 2023 00:00
Orbit: 763 x 764 km, 98.2° (Epoch: 29 September)

Date Brightness Start Highest point End Pass type
(mag) Time Alt. Az. Time Alt. Az. Time Alt. Az.
30 Sep 5.8 09:45:01 10° ENE 09:46:30 11° E 09:48:00 10° ESE visible
30 Sep 3.0 11:21:10 10° NNE 11:26:17 83° ESE 11:29:20 25° S visible
30 Sep 4.6 13:01:35 10° NNW 13:04:37 16° WNW 13:07:36 10° W visible
01 Oct 4.2 10:44:12 10° NNE 10:48:57 39° E 10:51:34 23° SSE visible
01 Oct 3.8 12:23:25 10° N 12:27:49 30° WNW 12:31:43 12° WSW visible
02 Oct 5.3 10:07:51 10° NE 10:11:26 19° E 10:13:48 14° ESE visible
02 Oct 3.0 11:45:49 10° N 11:50:50 61° WNW 11:53:58 23° SW visible
03 Oct 3.3 11:08:35 10° NNE 11:13:39 65° ESE 11:16:11 29° S visible
03 Oct 4.4 12:48:33 10° NNW 12:52:09 20° WNW 12:55:44 10° WSW visible
04 Oct 4.6 10:31:45 10° NNE 10:36:16 31° E 10:38:26 22° SE visible
04 Oct 3.5 12:10:38 10° N 12:15:17 38° WNW 12:18:35 18° SW visible
05 Oct 5.6 09:55:50 10° NE 09:58:39 15° E 10:00:39 12° ESE visible
05 Oct 2.9 11:33:09 10° N 11:38:14 78° WNW 11:40:49 30° SSW visible
06 Oct 3.7 10:56:02 10° NNE 11:01:00 50° E 11:03:02 32° SSE visible
06 Oct 4.1 12:35:38 10° N 12:39:40 24° WNW 12:43:11 12° WSW visible
07 Oct 5.0 10:19:25 10° NE 10:23:32 24° E 10:25:15 20° ESE visible
07 Oct 3.2 11:57:52 10° N 12:02:45 48° WNW 12:05:25 25° SW visible
08 Oct 5.8 09:44:20 10° ENE 09:45:51 11° E 09:47:22 10° ESE visible
08 Oct 2.9 11:20:31 10° NNE 11:25:37 83° ESE 11:27:38 38° S visible
08 Oct 4.6 13:00:57 10° NNW 13:03:56 16° WNW 13:06:57 10° W visible
09 Oct 4.2 10:43:32 10° NNE 10:48:18 39° E 10:49:51 31° SE visible
09 Oct 3.8 12:22:45 10° N 12:27:09 30° WNW 12:30:00 18° WSW visible
